Вернуться в каталог

COSMOS 1331

АктивенВоенныеLEO
NORAD 13027·PAYLOAD·🇷🇺 Russia

Запущен Jan 7, 1982 с Plesetsk Cosmodrome

Loading…

Ближайшие Пролёты (ближайшие 24 часа)

TLE

СвежийSource: Space-Track

Эпоха: Sep 14, 2026, 05:59 UTC

1 13027U 82001A   26257.24942086  .00000097  00000-0  40759-4 0  9996
2 13027  74.0499 352.0393 0024774 275.3144  84.5183 14.37750289340375

Отслеживайте COSMOS 1331 в реальном времени с AllMySat

Download on the App Store